FW1899 Weather Reports


time (UTC)temp
C
wind
direction
speed
KPH
gust
KPH
rain 1hr
cm
rain 24hr
cm
rain mn
cm
humidity
%
barometer
mb
20260507201738 13 0 0.0 0.0 0.00 0.00 0.00 75 1006.1
20260507201039 13 0 0.0 0.0 0.00 0.00 0.00 74 1006.0
20260507195638 13 0 0.0 0.0 0.00 0.00 0.00 73 1005.9
20260507194938 13 0 0.0 0.0 0.00 0.00 0.00 73 1005.8
20260507194238 13 0 0.0 0.0 0.00 0.00 0.00 72 1005.7
20260507193538 14 0 0.0 0.0 0.00 0.00 0.00 71 1005.7
20260507192839 14 0 0.0 0.0 0.00 0.00 0.00 71 1005.7
20260507192138 14 0 0.0 0.0 0.00 0.00 0.00 70 1005.6
20260507191438 15 0 0.0 0.0 0.00 0.00 0.00 70 1005.5
20260507190738 15 0 0.0 0.0 0.00 0.00 0.00 69 1005.5
20260507190039 15 225 0.0 1.6 0.00 0.00 0.00 68 1005.3
20260507184639 16 0 0.0 0.0 0.00 0.00 0.00 68 1005.2
20260507183939 16 213 1.6 6.4 0.00 0.00 0.00 68 1005.3
20260507183239 16 212 1.6 6.4 0.00 0.00 0.00 67 1005.1
20260507181838 16 206 1.6 3.2 0.00 0.00 0.00 65 1005.1
20260507181139 16 192 1.6 3.2 0.00 0.00 0.00 65 1005.0
20260507180439 17 188 3.2 6.4 0.00 0.00 0.00 65 1005.0
20260507175739 17 193 3.2 6.4 0.00 0.00 0.00 64 1004.9
20260507175039 17 240 3.2 4.8 0.00 0.00 0.00 63 1005.0
20260507174339 17 227 3.2 6.4 0.00 0.00 0.00 59 1004.9
20260507173639 17 229 3.2 4.8 0.00 0.00 0.00 57 1004.8
20260507172939 18 212 3.2 6.4 0.00 0.00 0.00 56 1004.9
20260507172239 19 198 3.2 6.4 0.00 0.00 0.00 55 1004.9
20260507171539 18 192 3.2 6.4 0.00 0.00 0.00 57 1004.8
20260507170839 18 188 1.6 6.4 0.00 0.00 0.00 57 1004.8
20260507165439 18 221 6.4 12.9 0.00 0.00 0.00 55 1004.7
20260507164039 19 199 4.8 6.4 0.00 0.00 0.00 54 1004.5
20260507163339 19 188 6.4 8.0 0.00 0.00 0.00 54 1004.5
20260507162639 19 218 4.8 8.0 0.00 0.00 0.00 54 1004.5
20260507161239 19 225 6.4 8.0 0.00 0.00 0.00 55 1004.4
20260507155839 18 227 6.4 8.0 0.00 0.00 0.00 54 1004.3
20260507155139 19 233 6.4 8.0 0.00 0.00 0.00 55 1004.4
20260507153739 19 239 6.4 11.3 0.00 0.00 0.00 53 1004.6
20260507152340 20 179 8.0 11.3 0.00 0.00 0.00 51 1004.5
20260507151639 20 199 8.0 12.9 0.00 0.00 0.00 51 1004.5
20260507150940 20 220 3.2 11.3 0.00 0.00 0.00 50 1004.5
20260507145540 20 183 6.4 8.0 0.00 0.00 0.00 51 1004.6
20260507144839 20 228 8.0 14.5 0.00 0.00 0.00 50 1004.5
20260507143440 20 225 4.8 6.4 0.00 0.00 0.00 50 1004.6
20260507141340 21 212 8.0 12.9 0.00 0.00 0.00 48 1004.7
20260507140640 21 185 8.0 12.9 0.00 0.00 0.00 48 1004.7
20260507135940 20 233 8.0 12.9 0.00 0.00 0.00 48 1004.6
20260507135240 21 207 8.0 14.5 0.00 0.00 0.00 46 1004.8
20260507134540 21 175 8.0 14.5 0.00 0.00 0.00 48 1004.9
20260507133840 21 175 8.0 11.3 0.00 0.00 0.00 48 1005.0
20260507133140 21 212 8.0 12.9 0.00 0.00 0.00 49 1005.0
20260507131740 21 220 8.0 11.3 0.00 0.00 0.00 49 1005.0
20260507131040 21 198 8.0 11.3 0.00 0.00 0.00 50 1005.1
20260507130340 21 183 8.0 12.9 0.00 0.00 0.00 50 1005.2
20260507125640 21 179 8.0 12.9 0.00 0.00 0.00 49 1005.2
20260507124940 21 173 8.0 11.3 0.00 0.00 0.00 49 1005.4
20260507124240 21 207 8.0 12.9 0.00 0.00 0.00 49 1005.3
20260507123540 21 179 8.0 12.9 0.00 0.00 0.00 50 1005.5
20260507122140 21 162 8.0 12.9 0.00 0.00 0.00 52 1005.4
20260507121440 20 182 8.0 12.9 0.00 0.00 0.00 52 1005.4
20260507120740 20 204 6.4 8.0 0.00 0.00 0.00 53 1005.5
20260507120040 20 185 6.4 9.7 0.00 0.00 0.00 52 1005.6
20260507115340 20 226 6.4 9.7 0.00 0.00 0.00 53 1005.6
20260507114640 20 170 6.4 8.0 0.00 0.00 0.00 54 1005.5
20260507113940 19 185 6.4 8.0 0.00 0.00 0.00 55 1005.5
20260507113240 18 201 4.8 8.0 0.00 0.00 0.00 53 1005.4
20260507111840 20 259 4.8 8.0 0.00 0.00 0.00 51 1005.5
20260507111141 20 265 4.8 6.4 0.00 0.00 0.00 52 1005.6
20260507110440 20 270 3.2 6.4 0.00 0.00 0.00 51 1005.6
20260507105740 20 233 6.4 9.7 0.00 0.00 0.00 51 1005.8
20260507105040 20 226 8.0 9.7 0.00 0.00 0.00 52 1005.8
20260507104340 20 197 6.4 8.0 0.00 0.00 0.00 51 1005.7
20260507103640 20 203 8.0 11.3 0.00 0.00 0.00 51 1005.6
20260507102941 20 232 6.4 11.3 0.00 0.00 0.00 51 1005.7
20260507102240 20 185 6.4 8.0 0.00 0.00 0.00 52 1005.8
20260507101540 20 162 8.0 9.7 0.00 0.00 0.00 54 1005.8
20260507100841 20 138 8.0 9.7 0.00 0.00 0.00 55 1005.8
20260507100141 19 172 6.4 8.0 0.00 0.00 0.00 55 1005.8
20260507095441 18 225 6.4 9.7 0.00 0.00 0.00 57 1005.7
20260507094041 17 186 6.4 12.9 0.00 0.00 0.00 60 1005.9
20260507093341 18 210 4.8 9.7 0.00 0.00 0.00 60 1005.7
20260507092641 18 200 6.4 8.0 0.00 0.00 0.00 58 1005.7
20260507091941 18 185 6.4 8.0 0.00 0.00 0.00 58 1005.8
20260507091241 18 213 8.0 12.9 0.00 0.00 0.00 60 1005.7
20260507090541 18 215 8.0 12.9 0.00 0.00 0.00 60 1005.6
20260507085841 18 188 6.4 8.0 0.00 0.00 0.00 61 1005.6
20260507085141 18 191 6.4 9.7 0.00 0.00 0.00 62 1005.5
20260507084441 17 200 6.4 8.0 0.00 0.00 0.00 64 1005.5
20260507083741 17 220 4.8 8.0 0.00 0.00 0.00 70 1005.3
20260507082341 16 221 1.6 3.2 0.00 0.00 0.00 72 1005.4
20260507081641 16 205 3.2 4.8 0.00 0.00 0.00 71 1005.5
20260507080941 16 243 3.2 4.8 0.00 0.00 0.00 72 1005.5
20260507074842 16 204 3.2 4.8 0.00 0.00 0.00 73 1005.4
20260507074141 16 201 1.6 4.8 0.00 0.00 0.00 74 1005.5
20260507073441 16 190 0.0 1.6 0.00 0.00 0.00 75 1005.7
20260507072741 16 229 1.6 3.2 0.00 0.00 0.00 80 1005.7
20260507072041 15 209 0.0 3.2 0.00 0.00 0.00 86 1005.6
20260507071341 14 225 0.0 1.6 0.00 0.00 0.00 88 1005.4
20260507070641 13 225 0.0 1.6 0.00 0.00 0.00 90 1005.5
20260507065941 13 0 0.0 0.0 0.00 0.00 0.00 91 1005.5
20260507065241 13 0 0.0 0.0 0.00 0.00 0.00 91 1005.5
20260507064541 13 0 0.0 0.0 0.00 0.00 0.00 91 1005.3
20260507063842 13 0 0.0 0.0 0.00 0.00 0.00 92 1005.3
20260507062441 12 0 0.0 0.0 0.00 0.00 0.00 91 1005.2
20260507061741 12 0 0.0 0.0 0.00 0.00 0.00 91 1005.1
20260507061042 12 0 0.0 0.0 0.00 0.00 0.00 93 1005.0
20260507060341 12 0 0.0 0.0 0.00 0.00 0.00 93 1005.0
20260507055642 12 0 0.0 0.0 0.00 0.00 0.00 93 1004.9
20260507054242 11 0 0.0 0.0 0.00 0.00 0.00 92 1004.8
20260507053542 11 0 0.0 0.0 0.00 0.00 0.00 92 1004.7
20260507052842 11 0 0.0 0.0 0.00 0.00 0.00 91 1004.8
20260507052142 11 0 0.0 0.0 0.00 0.00 0.00 91 1004.6
20260507051442 11 270 0.0 1.6 0.00 0.00 0.00 91 1004.6
20260507050042 11 0 0.0 0.0 0.00 0.00 0.00 91 1004.5
20260507045342 11 0 0.0 0.0 0.00 0.00 0.00 90 1004.3
20260507043942 11 0 0.0 0.0 0.00 0.00 0.00 90 1004.4
20260507043242 11 0 0.0 0.0 0.00 0.00 0.00 90 1004.5
20260507042542 11 0 0.0 0.0 0.00 0.00 0.00 90 1004.5
20260507041842 11 0 0.0 0.0 0.00 0.00 0.00 90 1004.5
20260507041142 11 0 0.0 0.0 0.00 0.00 0.00 90 1004.5
20260507040442 11 304 0.0 3.2 0.00 0.00 0.00 89 1004.4
20260507035742 11 314 0.0 3.2 0.00 0.00 0.00 89 1004.4
20260507035042 11 0 0.0 0.0 0.00 0.00 0.00 89 1004.5
20260507033642 11 0 0.0 0.0 0.00 0.00 0.00 88 1004.5
20260507032943 11 0 0.0 0.0 0.00 0.00 0.00 88 1004.6
20260507031542 11 0 0.0 0.0 0.00 0.00 0.00 88 1004.7
20260507030842 11 0 0.0 0.0 0.00 0.00 0.00 88 1004.6
20260507030142 11 314 0.0 1.6 0.00 0.00 0.00 88 1004.6
20260507025442 11 0 0.0 0.0 0.00 0.00 0.00 88 1004.8
20260507024743 11 0 0.0 0.0 0.00 0.00 0.00 88 1004.7
20260507024042 11 0 0.0 0.0 0.00 0.00 0.00 88 1004.7
20260507023342 11 0 0.0 0.0 0.00 0.00 0.00 88 1004.7
20260507021243 11 0 0.0 0.0 0.00 0.00 0.00 86 1004.7
20260507020543 11 0 0.0 0.0 0.00 0.00 0.00 85 1004.7
20260507015843 11 0 0.0 0.0 0.00 0.00 0.00 85 1004.9
20260507015142 11 0 0.0 0.0 0.00 0.00 0.00 85 1004.8
20260507014443 11 0 0.0 0.0 0.00 0.00 0.00 85 1004.8
20260507013743 11 0 0.0 0.0 0.00 0.00 0.00 85 1004.9
20260507013043 11 0 0.0 0.0 0.00 0.00 0.00 85 1005.1
20260507012343 11 0 0.0 0.0 0.00 0.00 0.00 85 1004.9
20260507011643 11 0 0.0 0.0 0.00 0.00 0.00 85 1005.0
20260507010943 11 0 0.0 0.0 0.00 0.00 0.00 85 1005.0
20260507010243 11 0 0.0 0.0 0.00 0.00 0.00 84 1005.0
20260507005543 11 0 0.0 0.0 0.00 0.00 0.00 84 1005.0
20260507004843 11 0 0.0 0.0 0.00 0.00 0.00 84 1005.1
20260507004143 11 0 0.0 0.0 0.00 0.00 0.00 83 1005.1
20260507003443 11 0 0.0 0.0 0.00 0.00 0.00 83 1005.1
20260507002743 11 0 0.0 0.0 0.00 0.00 0.00 83 1005.2
20260507002043 11 0 0.0 0.0 0.00 0.00 0.00 83 1005.3
20260507001343 11 0 0.0 0.0 0.00 0.00 0.00 82 1005.4
20260507000643 11 0 0.0 0.0 0.00 0.00 0.00 82 1005.5
20260506235943 11 0 0.0 0.0 0.00 0.00 0.00 82 1005.5
20260506235243 11 0 0.0 0.0 0.00 0.00 0.00 82 1005.5
20260506234543 11 0 0.0 0.0 0.00 0.00 0.00 82 1005.5
20260506233844 11 0 0.0 0.0 0.00 0.00 0.00 82 1005.5
20260506233143 11 314 0.0 3.2 0.00 0.00 0.00 81 1005.5
20260506232443 11 296 0.0 3.2 0.00 0.00 0.00 81 1005.4
20260506231743 11 306 0.0 3.2 0.00 0.00 0.00 81 1005.4
20260506231044 11 0 0.0 0.0 0.00 0.00 0.00 80 1005.5
20260506230343 11 0 0.0 0.0 0.00 0.00 0.00 80 1005.5
20260506225643 12 0 0.0 0.0 0.00 0.00 0.00 81 1005.3
20260506223546 12 0 0.0 0.0 0.00 0.00 0.00 80 1005.3
20260506222843 12 304 0.0 3.2 0.00 0.00 0.00 79 1005.5
20260506222143 11 314 0.0 1.6 0.00 0.00 0.00 78 1005.6
20260506220744 12 0 0.0 0.0 0.00 0.00 0.00 78 1005.6
20260506220043 12 0 0.0 0.0 0.00 0.00 0.00 77 1005.6
20260506215343 12 0 0.0 0.0 0.00 0.00 0.00 77 1005.6
20260506214644 12 0 0.0 0.0 0.00 0.00 0.00 77 1005.6
20260506213944 12 0 0.0 0.0 0.00 0.00 0.00 76 1005.6
20260506212544 12 0 0.0 0.0 0.00 0.00 0.00 74 1005.7
20260506211844 12 0 0.0 0.0 0.00 0.00 0.00 72 1005.8
20260506210444 12 0 0.0 0.0 0.00 0.00 0.00 71 1005.6
20260506205744 12 0 0.0 0.0 0.00 0.00 0.00 71 1005.6
20260506205044 12 0 0.0 0.0 0.00 0.00 0.00 70 1005.6
20260506204344 12 0 0.0 0.0 0.00 0.00 0.00 70 1005.5
20260506203644 12 0 0.0 0.0 0.00 0.00 0.00 69 1005.6
20260506202944 13 0 0.0 0.0 0.00 0.00 0.00 68 1005.4
20260506202244 13 0 0.0 0.0 0.00 0.00 0.00 67 1005.3